Wind_Speed
39 36 39 41 40 39 35 30 29 26 25 25 27 28 29 29 30 31 32 31 30 29 28 27 24 23 22 21 20 20 19 18 17 16 15 15 15 15 15 15 15 15 16
36 35 36 37 36 36 32 28 28 28 27 28 29 30 29 31 31 30 31 30 30 29 28 26 24 23 23 22 21 21 20 20 18 17 17 17 16 16 16 16 15 15 16
33 33 32 32 33 33 32 30 28 27 27 29 30 30 31 32 31 31 31 30 30 28 27 26 24 24 24 23 23 22 22 21 20 19 18 18 18 18 17 17 16 16 16
32 31 31 31 31 31 30 29 28 28 29 30 32 32 33 34 33 33 33 32 31 29 28 27 27 26 26 26 25 25 24 24 23 22 21 20 19 19 19 18 18 17 17
31 30 30 30 30 29 30 30 29 29 30 32 33 34 36 36 35 35 35 33 32 32 31 29 29 29 29 29 28 28 28 27 26 25 25 23 22 21 20 20 20 19 18
29 29 29 29 30 31 31 32 31 33 34 35 36 37 38 38 38 38 38 37 36 35 34 33 33 33 33 33 31 31 31 30 29 29 28 27 26 25 23 22 22 21 21
26 29 30 30 32 33 34 35 36 38 39 40 41 41 41 42 42 42 42 41 41 40 39 38 37 37 36 37 36 35 34 33 33 32 31 30 29 28 26 25 24 23 23
28 30 31 32 35 36 38 40 41 43 44 45 46 46 46 47 47 47 46 46 45 44 44 43 42 42 41 40 39 38 38 37 36 35 34 33 31 31 29 28 26 24 24
32 32 35 38 39 41 43 45 46 48 49 50 50 50 51 51 51 51 51 51 50 49 48 48 47 46 45 44 43 42 41 40 39 37 36 35 34 33 32 31 29 27 25
38 40 43 44 45 47 49 50 51 52 53 54 54 54 54 54 54 55 55 55 54 54 54 53 52 51 49 48 47 46 44 43 41 40 39 37 36 35 34 33 31 30 27
45 47 49 50 51 52 53 54 55 56 56 57 57 58 58 58 58 58 59 59 58 58 58 57 56 55 53 52 51 49 48 47 45 43 41 39 38 37 36 35 33 32 30
50 52 53 54 55 56 57 58 58 59 59 60 61 61 62 62 62 62 62 62 62 62 61 61 60 59 58 56 55 53 51 50 48 46 44 42 40 39 37 36 35 34 32
54 55 57 58 59 60 60 60 61 61 62 62 63 63 64 64 64 64 64 64 63 63 63 62 62 62 61 60 59 57 55 53 51 49 47 45 43 41 40 38 36 35 33
58 59 60 61 62 63 63 64 64 64 63 63 63 63 63 62 62 61 61 61 61 61 61 61 61 62 62 61 61 60 59 57 54 52 50 47 45 43 42 40 38 36 34
58 60 62 63 64 66 66 66 66 65 64 62 60 58 56 55 54 53 54 54 56 57 59 60 61 62 62 62 61 61 60 59 57 55 52 50 47 45 43 41 40 38 35
59 61 63 64 65 66 66 65 64 61 58 56 52 49 47 45 44 43 44 45 47 48 51 53 55 57 59 61 61 61 60 59 58 56 55 52 49 46 44 42 40 38 36
61 62 63 63 63 63 62 61 59 56 53 50 46 44 43 41 40 39 39 38 39 39 39 41 42 44 47 51 54 57 58 58 57 55 55 53 51 49 46 43 41 39 36
60 60 61 61 61 60 59 57 55 52 49 46 44 43 41 40 39 38 37 37 36 34 34 33 33 34 36 39 43 47 50 52 53 53 52 53 52 50 47 45 42 40 37
59 60 60 59 58 57 55 53 51 48 46 44 43 42 41 40 39 38 37 35 34 32 30 29 30 30 31 32 35 38 41 44 47 49 50 50 50 49 47 45 43 40 37
59 59 58 57 56 55 53 50 48 46 44 43 42 41 40 39 38 37 36 35 33 31 29 27 27 27 27 28 29 32 34 38 41 43 45 47 49 48 47 45 43 40 38
59 58 57 57 56 54 51 49 47 45 43 43 41 40 39 38 37 36 35 33 32 31 29 27 26 25 25 25 26 27 29 33 36 38 40 42 45 46 45 44 42 40 37
57 56 55 55 54 52 50 47 45 43 41 39 37 36 35 34 34 33 33 31 30 30 29 27 26 25 23 22 23 23 25 28 32 36 38 39 40 43 44 42 40 38 36
56 54 54 53 51 50 47 45 42 39 37 34 33 32 31 31 30 30 30 29 28 27 27 26 24 23 21 20 20 21 22 25 28 31 34 36 37 38 40 40 38 36 34
54 53 52 51 49 46 44 42 39 36 33 31 29 27 27 26 26 26 26 26 25 24 24 23 22 20 19 18 17 18 20 22 25 27 31 34 35 35 37 39 36 34 32
53 51 50 49 46 43 40 38 35 32 29 26 24 22 21 22 22 22 23 23 22 21 21 20 20 18 17 16 15 17 18 19 23 26 29 33 33 33 34 35 35 33 31
51 49 47 46 44 42 38 35 32 28 24 21 18 17 16 16 16 18 19 19 19 19 18 18 17 16 16 15 14 14 16 17 20 24 26 29 31 32 32 32 32 32 31
Wind_Direction
288 288 291 294 293 290 283 276 280 272 273 277 280 283 289 292 295 294 296 294 292 290 288 286 282 279 278 276 273 272 272 271 269 271 274 276 276 277 276 277 277 276 273
288 291 294 293 296 296 293 281 288 289 289 288 286 289 290 294 294 294 295 294 291 290 287 282 278 276 275 272 270 269 268 268 267 268 271 273 275 277 278 277 277 277 276
286 290 293 296 298 297 299 292 290 292 290 290 291 291 292 293 292 292 292 293 293 290 286 281 278 276 275 272 269 267 266 266 266 267 269 270 273 277 277 278 278 277 277
284 285 290 294 298 300 298 298 292 290 288 289 290 289 289 290 289 290 290 290 289 287 283 281 280 278 275 273 270 267 265 265 265 267 268 269 269 272 275 277 277 277 276
281 285 290 293 297 299 297 295 294 292 289 287 287 287 287 286 286 286 285 284 283 282 280 277 277 277 275 273 270 269 266 264 264 267 269 269 269 268 269 272 275 276 276
281 285 288 291 295 296 296 296 294 292 290 287 285 285 285 284 285 284 283 282 280 278 277 275 274 273 273 272 270 269 267 265 264 265 267 268 268 268 267 268 270 275 277
288 289 288 291 294 294 295 295 294 293 291 288 286 285 284 283 282 281 281 280 279 276 274 273 272 271 270 268 268 268 266 266 265 265 266 266 267 267 267 267 266 269 273
299 294 291 290 293 295 295 295 293 291 289 288 287 286 284 283 281 280 278 277 276 274 272 272 271 269 269 268 266 266 265 265 265 265 265 265 265 265 266 266 265 265 268
303 300 298 297 296 295 295 294 291 289 288 287 286 284 283 281 280 279 278 276 275 273 271 270 269 268 267 266 265 264 264 263 263 263 264 264 263 264 264 264 263 263 264
304 302 301 300 298 297 295 294 292 290 288 287 285 284 282 280 279 277 276 275 273 272 271 269 268 267 265 264 263 262 261 261 261 261 261 262 262 262 262 263 262 262 263
307 306 305 304 302 300 297 295 292 290 289 287 285 283 282 280 278 276 275 273 272 271 270 268 267 266 264 263 262 261 259 258 258 259 259 260 260 260 260 261 261 261 262
310 308 306 305 302 300 298 296 293 291 289 288 286 284 282 280 278 276 274 272 271 269 268 267 266 265 263 262 261 260 258 256 256 256 257 258 258 257 257 258 259 260 261
309 308 306 305 303 301 299 297 294 292 290 287 285 283 281 280 278 276 274 272 270 268 267 265 264 263 262 261 259 258 257 255 254 254 255 255 255 254 255 255 256 258 259
310 309 307 306 304 302 301 299 297 294 292 290 287 285 283 280 278 275 273 271 269 267 266 264 263 262 260 259 258 257 255 254 253 253 253 253 253 252 252 253 254 256 257
309 308 307 306 304 303 301 300 298 296 294 292 290 287 285 282 279 276 274 271 269 268 265 264 263 262 260 258 256 255 254 253 251 250 250 250 250 250 249 250 251 253 254
309 308 307 306 304 303 302 300 299 297 295 292 290 286 284 282 281 279 277 275 273 271 268 266 264 262 260 257 255 253 252 251 249 248 247 247 247 247 247 247 248 250 251
311 310 309 308 306 305 303 301 298 296 293 290 287 284 283 281 279 279 278 277 275 272 271 269 266 263 260 257 254 251 249 248 246 245 244 243 243 243 243 243 244 246 249
311 310 309 308 307 306 304 301 299 296 292 289 285 283 281 279 278 276 276 275 274 271 270 270 269 266 263 259 255 251 248 245 243 241 240 240 239 239 239 240 242 244 245
313 313 312 310 309 308 306 303 300 296 292 288 284 281 279 278 275 272 271 270 269 268 268 268 268 267 265 263 258 253 248 243 239 237 236 235 235 235 235 236 238 240 242
317 316 314 313 311 310 308 305 302 297 293 289 285 281 278 275 273 269 267 267 265 263 264 266 268 267 266 264 262 255 248 241 235 232 231 231 231 230 231 232 234 236 238
319 318 317 316 314 312 310 306 303 299 294 291 286 281 277 273 270 266 263 263 260 259 261 263 266 266 266 265 263 257 248 239 231 226 225 225 226 225 226 228 230 231 233
322 321 320 319 317 315 312 308 305 301 296 291 286 281 276 271 268 264 260 258 258 257 258 260 262 263 265 264 262 255 244 236 229 223 221 220 220 220 220 222 224 226 228
326 325 324 323 322 319 316 314 310 305 300 294 287 281 275 271 267 262 258 256 255 255 255 256 257 259 260 259 257 251 242 234 226 218 217 214 212 214 216 216 217 219 221
330 329 328 327 326 324 321 318 315 311 306 299 292 284 275 268 263 260 254 251 251 251 250 249 249 251 254 255 251 247 239 230 221 213 209 207 207 208 211 211 211 212 213
337 335 334 334 333 332 329 325 322 317 311 305 296 288 278 268 260 255 250 247 247 246 244 243 242 244 248 246 244 241 232 225 215 207 201 200 199 200 203 203 203 202 203
345 344 344 344 342 341 338 335 332 328 322 315 305 293 282 270 259 251 244 241 241 240 237 235 235 238 239 234 234 228 221 215 205 198 194 192 191 194 194 193 194 195 196
Height
5859 5856 5854 5851 5846 5841 5837 5836 5837 5833 5833 5835 5835 5834 5835 5835 5834 5833 5830 5827 5826 5825 5823 5823 5822 5822 5822 5822 5821 5821 5821 5821 5821 5822 5821 5821 5820 5819 5819 5819 5818 5818 5817
5856 5853 5850 5846 5841 5835 5830 5830 5831 5830 5830 5829 5829 5828 5828 5828 5827 5825 5824 5821 5820 5818 5817 5816 5816 5816 5816 5816 5815 5815 5816 5816 5816 5817 5817 5816 5816 5815 5814 5814 5813 5813 5812
5851 5848 5845 5841 5837 5832 5827 5826 5826 5825 5824 5823 5822 5822 5821 5821 5820 5818 5816 5815 5813 5811 5810 5809 5809 5809 5809 5809 5809 5810 5810 5810 5810 5811 5811 5811 5811 5810 5810 5809 5808 5808 5807
5845 5842 5840 5837 5833 5829 5825 5821 5820 5818 5816 5815 5814 5814 5813 5812 5811 5810 5809 5807 5805 5804 5803 5802 5802 5802 5802 5802 5802 5802 5803 5803 5803 5804 5805 5805 5805 5805 5805 5804 5803 5803 5802
5838 5835 5833 5830 5827 5823 5820 5817 5814 5812 5810 5808 5807 5806 5805 5803 5802 5801 5800 5799 5797 5796 5795 5794 5794 5793 5793 5794 5794 5794 5795 5795 5796 5797 5797 5798 5799 5799 5800 5799 5797 5797 5797
5831 5828 5825 5823 5820 5816 5813 5810 5808 5805 5803 5801 5799 5798 5796 5794 5793 5791 5790 5789 5788 5787 5786 5785 5785 5785 5785 5785 5785 5786 5786 5787 5788 5789 5789 5790 5791 5792 5793 5793 5792 5791 5790
5823 5820 5817 5815 5812 5809 5806 5802 5799 5796 5794 5792 5789 5787 5785 5783 5782 5780 5779 5778 5777 5776 5775 5775 5775 5775 5775 5775 5776 5776 5777 5778 5779 5780 5781 5782 5782 5783 5784 5785 5785 5785 5784
5816 5813 5810 5807 5804 5801 5797 5794 5790 5787 5784 5780 5777 5774 5772 5770 5769 5767 5766 5765 5764 5764 5763 5763 5763 5763 5764 5764 5765 5766 5767 5768 5769 5770 5771 5772 5773 5774 5776 5777 5778 5778 5778
5809 5805 5802 5798 5795 5790 5787 5783 5779 5775 5771 5767 5763 5761 5758 5755 5753 5752 5750 5750 5750 5750 5749 5749 5749 5750 5751 5751 5752 5754 5755 5757 5758 5759 5760 5762 5764 5765 5766 5768 5769 5771 5771
5800 5795 5792 5787 5783 5778 5774 5769 5764 5760 5755 5752 5748 5745 5742 5739 5737 5736 5734 5733 5733 5733 5733 5734 5734 5735 5737 5738 5739 5741 5742 5744 5746 5748 5750 5752 5754 5755 5757 5758 5760 5761 5763
5788 5783 5778 5773 5768 5763 5758 5753 5748 5743 5738 5734 5730 5726 5723 5721 5719 5717 5716 5715 5715 5714 5715 5716 5717 5718 5720 5722 5724 5726 5728 5731 5733 5736 5738 5740 5742 5745 5747 5748 5750 5751 5753
5776 5770 5764 5759 5753 5747 5741 5735 5730 5724 5719 5715 5710 5706 5703 5700 5698 5696 5695 5695 5695 5695 5695 5696 5698 5700 5702 5704 5707 5710 5713 5716 5720 5722 5725 5728 5731 5733 5736 5738 5740 5742 5743
5763 5757 5750 5743 5736 5729 5723 5716 5710 5705 5699 5694 5690 5685 5681 5678 5676 5674 5672 5672 5673 5673 5674 5675 5677 5679 5682 5685 5689 5692 5696 5700 5704 5708 5712 5715 5718 5722 5725 5727 5730 5732 5733
5749 5741 5733 5725 5718 5710 5702 5696 5689 5683 5677 5672 5667 5663 5659 5656 5653 5652 5650 5650 5650 5651 5652 5653 5656 5658 5661 5665 5669 5673 5677 5682 5687 5692 5697 5701 5705 5709 5713 5716 5719 5722 5724
5737 5728 5719 5710 5701 5692 5683 5675 5668 5661 5655 5650 5645 5641 5637 5634 5632 5631 5630 5629 5629 5629 5630 5632 5634 5636 5640 5644 5648 5653 5658 5663 5669 5675 5681 5686 5691 5696 5700 5704 5708 5711 5714
5723 5714 5704 5694 5684 5674 5665 5656 5648 5641 5635 5630 5626 5622 5619 5617 5615 5613 5612 5611 5610 5610 5610 5611 5613 5615 5618 5622 5626 5632 5638 5644 5650 5657 5664 5670 5677 5682 5687 5692 5696 5700 5704
5708 5698 5687 5677 5666 5656 5647 5638 5630 5623 5617 5613 5609 5606 5604 5602 5600 5599 5597 5596 5596 5595 5595 5595 5596 5597 5599 5602 5606 5611 5617 5624 5631 5639 5646 5654 5661 5668 5674 5680 5685 5689 5693
5693 5682 5671 5660 5650 5639 5630 5621 5613 5606 5601 5596 5593 5591 5589 5587 5586 5585 5584 5584 5583 5583 5583 5583 5583 5583 5584 5586 5589 5593 5598 5605 5613 5621 5629 5637 5646 5653 5661 5667 5673 5678 5683
5677 5666 5654 5643 5633 5622 5613 5604 5596 5590 5584 5580 5577 5575 5573 5572 5572 5571 5571 5571 5571 5571 5572 5572 5572 5572 5573 5574 5576 5578 5583 5589 5596 5604 5613 5622 5631 5639 5647 5654 5661 5667 5672
5661 5649 5638 5627 5616 5606 5596 5587 5580 5574 5569 5564 5561 5559 5558 5557 5557 5557 5558 5558 5559 5560 5561 5562 5562 5562 5563 5563 5565 5567 5570 5576 5582 5590 5598 5607 5616 5625 5633 5642 5649 5656 5662
5646 5634 5623 5611 5600 5589 5580 5571 5564 5558 5553 5549 5546 5544 5542 5542 5542 5543 5545 5546 5548 5549 5551 5552 5553 5553 5554 5554 5555 5557 5560 5564 5570 5577 5585 5593 5602 5611 5621 5630 5638 5645 5652
5633 5620 5608 5596 5585 5574 5564 5556 5549 5542 5537 5533 5530 5529 5528 5528 5529 5530 5532 5534 5537 5539 5541 5542 5544 5545 5546 5547 5547 5549 5551 5555 5560 5566 5574 5582 5591 5599 5609 5618 5627 5635 5642
5619 5607 5594 5583 5571 5560 5549 5541 5534 5528 5523 5519 5517 5515 5515 5515 5516 5518 5521 5523 5526 5529 5531 5533 5535 5537 5539 5540 5540 5541 5543 5547 5552 5558 5565 5572 5580 5589 5599 5608 5617 5625 5633
5608 5595 5583 5571 5559 5548 5537 5529 5521 5515 5510 5507 5504 5503 5503 5503 5505 5507 5510 5514 5517 5520 5523 5525 5528 5530 5532 5533 5534 5536 5538 5541 5545 5551 5557 5564 5572 5581 5590 5600 5609 5617 5625
5599 5585 5572 5560 5549 5538 5528 5519 5511 5505 5500 5496 5494 5493 5493 5494 5496 5498 5501 5505 5509 5512 5515 5518 5521 5524 5526 5528 5530 5531 5533 5536 5540 5545 5551 5558 5566 5575 5584 5593 5602 5610 5618
5592 5579 5566 5554 5542 5531 5521 5511 5504 5497 5492 5489 5487 5486 5486 5486 5488 5491 5494 5498 5502 5505 5509 5512 5516 5519 5521 5523 5526 5528 5530 5533 5537 5542 5548 5555 5563 5571 5580 5589 5597 5605 5612